Location: Arbon
(43.0005°N, 0.7472°E)
Time: 22:29:47
(UTC+00:00)

Transit 4A - All Passes

Search period start: 25 November 2020 00:00
Search period end: 05 December 2020 00:00
Orbit: 862 x 982 km, 66.8° (Epoch: 25 November)

Date Brightness Start Highest point End Pass type
(mag) Time Alt. Az. Time Alt. Az. Time Alt. Az.
25 Nov - 07:15:37 10° SSE 07:20:03 20° ESE 07:24:33 10° ENE daylight
25 Nov - 08:59:26 10° SW 09:05:44 73° WNW 09:12:12 10° NNE daylight
25 Nov - 10:48:56 10° W 10:53:17 19° NW 10:57:41 10° N daylight
25 Nov - 16:15:44 10° NNW 16:21:20 31° NE 16:26:47 10° ESE daylight
25 Nov - 18:01:52 10° NW 18:08:04 57° WSW 18:14:05 10° SSE visible
26 Nov - 07:23:44 10° SSE 07:29:05 30° ESE 07:34:33 10° NE daylight
26 Nov - 09:09:00 10° SW 09:15:10 52° NW 09:21:28 10° NNE daylight
26 Nov - 10:59:41 10° WNW 11:03:08 15° NNW 11:06:36 10° N daylight
26 Nov - 14:40:07 10° N 14:42:39 12° NNE 14:45:08 10° NE daylight
26 Nov - 16:24:53 10° NNW 16:30:55 41° NE 16:36:46 10° ESE daylight
26 Nov - 18:11:27 10° NW 18:17:15 39° WSW 18:22:53 10° S visible
27 Nov - 07:32:18 10° S 07:38:13 44° ESE 07:44:15 10° NE daylight
27 Nov - 09:18:49 10° WSW 09:24:41 38° NW 09:30:40 10° NNE daylight
27 Nov - 11:10:52 10° NW 11:13:04 12° NNW 11:15:16 10° N daylight
27 Nov - 14:48:52 10° N 14:52:32 16° NNE 14:56:10 10° ENE daylight
27 Nov - 16:34:06 10° NNW 16:40:24 57° NE 16:46:29 10° SE daylight
27 Nov - 18:21:14 10° NW 18:26:20 26° WSW 18:31:19 10° SSW visible
28 Nov - 07:41:12 10° SSW 07:47:25 64° ESE 07:53:46 10° NE daylight
28 Nov - 09:28:51 10° WSW 09:34:18 29° NW 09:39:48 10° NNE daylight
28 Nov - 14:57:48 10° N 15:02:22 20° NE 15:06:50 10° E daylight
28 Nov - 16:43:23 10° NNW 16:49:47 81° ENE 16:55:59 10° SSE visible
28 Nov - 18:31:24 10° WNW 18:35:21 18° WSW 18:39:14 10° SW visible
29 Nov - 06:07:43 10° SE 06:11:14 16° ESE 06:14:47 10° ENE visible
29 Nov - 07:50:22 10° SSW 07:56:42 90° WNW 08:03:11 10° NNE daylight
29 Nov - 09:39:09 10° W 09:43:59 22° NW 09:48:52 10° N daylight
29 Nov - 15:06:52 10° NNW 15:12:06 26° NE 15:17:12 10° E daylight
29 Nov - 16:52:45 10° NW 16:59:06 72° WSW 17:05:14 10° SSE visible
29 Nov - 18:42:48 10° W 18:44:17 11° W 18:45:46 10° WSW visible
30 Nov - 06:15:24 10° SSE 06:20:14 24° ESE 06:25:09 10° NE visible
30 Nov - 07:59:47 10° SW 08:06:04 65° NW 08:12:30 10° NNE daylight
30 Nov - 09:49:43 10° WNW 09:53:46 17° NNW 09:57:51 10° N daylight
30 Nov - 13:31:47 10° N 13:33:12 11° NNE 13:34:36 10° NE daylight
30 Nov - 15:15:58 10° NNW 15:21:44 34° NE 15:27:20 10° ESE daylight
30 Nov - 17:02:15 10° NW 17:08:20 50° WSW 17:14:12 10° S visible
01 Dec - 06:23:42 10° S 06:29:18 35° ESE 06:35:01 10° NE visible
01 Dec - 08:09:26 10° SW 08:15:32 47° NW 08:21:43 10° NNE daylight
01 Dec - 10:00:35 10° WNW 10:03:38 14° NNW 10:06:42 10° N daylight
01 Dec - 13:40:11 10° N 13:43:09 13° NNE 13:46:05 10° NE daylight
01 Dec - 15:25:09 10° NNW 15:31:16 46° NE 15:37:12 10° SE daylight
01 Dec - 17:11:53 10° NW 17:17:28 34° WSW 17:22:53 10° S visible
02 Dec - 06:32:24 10° S 06:38:28 51° ESE 06:44:38 10° NE visible
02 Dec - 08:19:19 10° WSW 08:25:05 34° NW 08:30:54 10° NNE daylight
02 Dec - 10:12:02 10° NW 10:13:36 11° NNW 10:15:09 10° N daylight
02 Dec - 13:49:01 10° N 13:53:02 17° NNE 13:56:57 10° ENE daylight
02 Dec - 15:34:23 10° NNW 15:40:43 65° NE 15:46:51 10° SE daylight
02 Dec - 17:21:46 10° NW 17:26:32 23° WSW 17:31:10 10° SSW visible
03 Dec - 05:00:31 10° ESE 05:02:28 11° E 05:04:24 10° E visible
03 Dec - 06:41:24 10° SSW 06:47:41 73° ESE 06:54:06 10° NE visible
03 Dec - 08:29:27 10° W 08:34:42 26° NW 08:40:00 10° NNE daylight
03 Dec - 13:58:01 10° N 14:02:49 22° NE 14:07:31 10° E daylight
03 Dec - 15:43:42 10° NNW 15:50:06 90° SSW 15:56:15 10° SSE daylight
03 Dec - 17:32:11 10° WNW 17:35:30 15° WSW 17:38:47 10° SW visible
04 Dec - 05:07:18 10° SE 05:11:24 18° ESE 05:15:33 10° ENE visible
04 Dec - 06:50:40 10° SSW 06:57:00 80° WNW 07:03:28 10° NNE daylight
04 Dec - 08:39:50 10° W 08:44:26 20° NW 08:49:03 10° N daylight
04 Dec - 14:07:05 10° NNW 14:12:30 28° NE 14:17:48 10° ESE daylight
04 Dec - 15:53:07 10° NW 15:59:21 63° WSW 16:05:24 10° SSE daylight
